Location: Godiavel Galaoual
(15.2485°N, 12.6604°W)
Time: 08:49:14
(UTC+00:00)

Cosmos 1932 - Pass Details

Date: 27 February 2020
Orbit: 920 x 1009 km, 65.0° (Epoch: 08 April)

Event Time Altitude Azimuth Distance (km) Brightness Sun altitude
Rises 20:29:51 0° 336° (NNW) 3,724 7.8 -22.9°
Reaches altitude 10° 20:32:27 10° 335° (NNW) 2,767 7.1 -23.6°
Maximum altitude 20:38:58 84° 249° (WSW) 996 4.5 -25.1°
Enters shadow 20:43:48 19° 161° (SSE) 2,161 6.1 -26.3°
